Location: ??????????
(44.2167°N, 135.5333°E)
Time: 15:24:22
(UTC+00:00)

Okean 2 Rocket - Pass Details

Date: 15 June 2025
Orbit: 611 x 635 km, 82.5° (Epoch: 15 July)

Event Time Altitude Azimuth Distance (km) Brightness Sun altitude
Rises 16:32:06 0° 347° (NNW) 2,937 7.4 -19.1°
Reaches altitude 10° 16:34:22 10° 344° (NNW) 2,021 6.4 -19.0°
Maximum altitude 16:38:47 60° 266° (W) 721 3.2 -18.7°
Enters shadow 16:40:06 41° 207° (SSW) 914 3.4 -18.6°
